contact:dominique.lefevre@mio.osupytheas.fr, maurice.libes@osupytheas.fr, didier.mallarino@osupytheas.fr
Project:EMSO http://www.emso-fr.org/EMSO-France
Depth: 2436.0 m
Title:EMSO Ligure Ouest : Data MII capteur OXYGEN
DateTime,Latitude,Longitude,Optode-Type,Optode_Serial,Oxygen,Saturation_Oxygen,Temperature
DateTime,Latitude,Longitude,Optode-Type,Optode_Serial,µmol.l-1,%,degC
2017-12-01T00:00:52,42.805,6.029,4330,1995,196.442,60.073,13.287
2017-12-01T00:03:52,42.805,6.029,4330,1995,196.460,60.079,13.287
2017-12-01T00:06:52,42.805,6.029,4330,1995,196.474,60.083,13.287
2017-12-01T00:09:52,42.805,6.029,4330,1995,196.401,60.061,13.287
2017-12-01T00:12:52,42.805,6.029,4330,1995,196.377,60.054,13.287
2017-12-01T00:15:52,42.805,6.029,4330,1995,196.354,60.047,13.288
2017-12-01T00:18:52,42.805,6.029,4330,1995,196.348,60.045,13.287
2017-12-01T00:21:52,42.805,6.029,4330,1995,196.115,59.974,13.288
2017-12-01T00:24:52,42.805,6.029,4330,1995,196.057,59.956,13.287
2017-12-01T00:27:52,42.805,6.029,4330,1995,195.989,59.935,13.287
2017-12-01T00:30:52,42.805,6.029,4330,1995,196.000,59.939,13.287
2017-12-01T00:33:52,42.805,6.029,4330,1995,196.089,59.966,13.288
2017-12-01T00:36:52,42.805,6.029,4330,1995,196.151,59.986,13.289
2017-12-01T00:39:51,42.805,6.029,4330,1995,196.217,60.005,13.288
2017-12-01T00:42:51,42.805,6.029,4330,1995,196.279,60.023,13.287
2017-12-01T00:45:51,42.805,6.029,4330,1995,196.228,60.008,13.287
2017-12-01T00:48:51,42.805,6.029,4330,1995,196.295,60.028,13.287
2017-12-01T00:51:51,42.805,6.029,4330,1995,196.253,60.015,13.287
2017-12-01T00:54:51,42.805,6.029,4330,1995,196.290,60.026,13.287
2017-12-01T00:57:51,42.805,6.029,4330,1995,196.230,60.008,13.287
2017-12-01T01:00:51,42.805,6.029,4330,1995,196.217,60.006,13.288
2017-12-01T01:03:51,42.805,6.029,4330,1995,196.134,59.981,13.288
2017-12-01T01:06:51,42.805,6.029,4330,1995,196.062,59.958,13.287
2017-12-01T01:09:51,42.805,6.029,4330,1995,196.058,59.956,13.287
2017-12-01T01:12:51,42.805,6.029,4330,1995,196.014,59.943,13.288
2017-12-01T01:15:51,42.805,6.029,4330,1995,195.854,59.894,13.287
2017-12-01T01:18:51,42.805,6.029,4330,1995,195.863,59.896,13.287
2017-12-01T01:21:51,42.805,6.029,4330,1995,195.965,59.927,13.287
2017-12-01T01:24:51,42.805,6.029,4330,1995,195.871,59.899,13.288
2017-12-01T01:27:51,42.805,6.029,4330,1995,195.821,59.884,13.288
2017-12-01T01:30:51,42.805,6.029,4330,1995,195.831,59.887,13.287
2017-12-01T01:33:51,42.805,6.029,4330,1995,195.865,59.897,13.287
2017-12-01T01:36:51,42.805,6.029,4330,1995,195.886,59.904,13.287
2017-12-01T01:39:51,42.805,6.029,4330,1995,195.952,59.923,13.287
2017-12-01T01:42:51,42.805,6.029,4330,1995,195.962,59.927,13.287
2017-12-01T01:45:51,42.805,6.029,4330,1995,196.043,59.951,13.287
2017-12-01T01:48:51,42.805,6.029,4330,1995,196.125,59.977,13.288
2017-12-01T01:51:51,42.805,6.029,4330,1995,195.967,59.929,13.288
2017-12-01T01:54:51,42.805,6.029,4330,1995,196.074,59.960,13.287
2017-12-01T01:57:51,42.805,6.029,4330,1995,196.104,59.970,13.287
2017-12-01T02:00:51,42.805,6.029,4330,1995,196.142,59.981,13.287
2017-12-01T02:03:51,42.805,6.029,4330,1995,196.108,59.971,13.287
2017-12-01T02:06:51,42.805,6.029,4330,1995,195.869,59.898,13.287
2017-12-01T02:09:51,42.805,6.029,4330,1995,195.792,59.875,13.287
2017-12-01T02:12:51,42.805,6.029,4330,1995,195.692,59.844,13.287
2017-12-01T02:15:51,42.805,6.029,4330,1995,195.911,59.912,13.288
2017-12-01T02:18:51,42.805,6.029,4330,1995,195.766,59.867,13.288
2017-12-01T02:21:51,42.805,6.029,4330,1995,195.522,59.792,13.287
2017-12-01T02:24:51,42.805,6.029,4330,1995,195.423,59.762,13.287
2017-12-01T02:27:51,42.805,6.029,4330,1995,195.614,59.820,13.287
2017-12-01T02:30:51,42.805,6.029,4330,1995,195.543,59.799,13.287
2017-12-01T02:33:51,42.805,6.029,4330,1995,195.511,59.788,13.287
2017-12-01T02:36:51,42.805,6.029,4330,1995,195.600,59.815,13.287
2017-12-01T02:39:51,42.805,6.029,4330,1995,195.528,59.793,13.287
2017-12-01T02:42:51,42.805,6.029,4330,1995,195.526,59.793,13.287
2017-12-01T02:45:51,42.805,6.029,4330,1995,195.586,59.812,13.287
2017-12-01T02:48:51,42.805,6.029,4330,1995,195.519,59.791,13.287
2017-12-01T02:51:51,42.805,6.029,4330,1995,195.826,59.885,13.287
2017-12-01T02:54:51,42.805,6.029,4330,1995,195.707,59.848,13.286
2017-12-01T02:57:51,42.805,6.029,4330,1995,195.601,59.816,13.287
2017-12-01T03:00:51,42.805,6.029,4330,1995,195.559,59.803,13.287
2017-12-01T03:03:51,42.805,6.029,4330,1995,195.559,59.803,13.287
2017-12-01T03:06:51,42.805,6.029,4330,1995,195.492,59.782,13.286
2017-12-01T03:09:51,42.805,6.029,4330,1995,195.471,59.776,13.287
2017-12-01T03:12:51,42.805,6.029,4330,1995,195.520,59.791,13.286
2017-12-01T03:15:51,42.805,6.029,4330,1995,195.533,59.795,13.287
2017-12-01T03:18:51,42.805,6.029,4330,1995,195.496,59.784,13.287
2017-12-01T03:21:51,42.805,6.029,4330,1995,195.562,59.804,13.287
2017-12-01T03:24:51,42.805,6.029,4330,1995,195.607,59.817,13.286
2017-12-01T03:27:51,42.805,6.029,4330,1995,195.523,59.792,13.287
2017-12-01T03:30:51,42.805,6.029,4330,1995,195.623,59.823,13.287
2017-12-01T03:33:51,42.805,6.029,4330,1995,195.554,59.801,13.287
2017-12-01T03:36:51,42.805,6.029,4330,1995,195.594,59.815,13.288
2017-12-01T03:39:51,42.805,6.029,4330,1995,195.643,59.829,13.287
2017-12-01T03:42:51,42.805,6.029,4330,1995,195.620,59.821,13.286
2017-12-01T03:45:51,42.805,6.029,4330,1995,195.528,59.794,13.287
2017-12-01T03:48:51,42.805,6.029,4330,1995,195.568,59.807,13.288
2017-12-01T03:51:51,42.805,6.029,4330,1995,195.491,59.786,13.290
2017-12-01T03:54:51,42.805,6.029,4330,1995,195.776,59.870,13.287
2017-12-01T03:57:51,42.805,6.029,4330,1995,196.057,59.955,13.287
2017-12-01T04:00:51,42.805,6.029,4330,1995,195.957,59.925,13.287
2017-12-01T04:03:51,42.805,6.029,4330,1995,196.036,59.949,13.287
2017-12-01T04:06:51,42.805,6.029,4330,1995,195.897,59.905,13.286
2017-12-01T04:09:51,42.805,6.029,4330,1995,195.919,59.913,13.286
2017-12-01T04:12:51,42.805,6.029,4330,1995,195.842,59.889,13.286
2017-12-01T04:15:51,42.805,6.029,4330,1995,195.709,59.848,13.286
2017-12-01T04:18:51,42.805,6.029,4330,1995,195.627,59.823,13.286
2017-12-01T04:21:51,42.805,6.029,4330,1995,195.833,59.886,13.287
2017-12-01T04:24:51,42.805,6.029,4330,1995,196.011,59.941,13.287
2017-12-01T04:27:51,42.805,6.029,4330,1995,196.095,59.967,13.287
2017-12-01T04:30:51,42.805,6.029,4330,1995,196.151,59.984,13.286
2017-12-01T04:33:51,42.805,6.029,4330,1995,196.236,60.010,13.287
2017-12-01T04:36:51,42.805,6.029,4330,1995,196.253,60.015,13.287
2017-12-01T04:39:51,42.805,6.029,4330,1995,196.248,60.014,13.287
2017-12-01T04:42:51,42.805,6.029,4330,1995,196.333,60.039,13.287
2017-12-01T04:45:51,42.805,6.029,4330,1995,196.314,60.033,13.286
2017-12-01T04:48:51,42.805,6.029,4330,1995,196.308,60.032,13.287
2017-12-01T04:51:51,42.805,6.029,4330,1995,196.397,60.059,13.287
2017-12-01T04:54:51,42.805,6.029,4330,1995,196.452,60.075,13.286
2017-12-01T04:57:51,42.805,6.029,4330,1995,196.405,60.062,13.287
2017-12-01T05:00:51,42.805,6.029,4330,1995,196.443,60.073,13.286
2017-12-01T05:03:51,42.805,6.029,4330,1995,196.443,60.073,13.286
2017-12-01T05:06:51,42.805,6.029,4330,1995,196.486,60.086,13.286
2017-12-01T05:09:51,42.805,6.029,4330,1995,196.585,60.116,13.286
2017-12-01T05:12:51,42.805,6.029,4330,1995,196.647,60.135,13.286
2017-12-01T05:15:51,42.805,6.029,4330,1995,196.700,60.151,13.286
2017-12-01T05:18:51,42.805,6.029,4330,1995,196.716,60.156,13.286
2017-12-01T05:21:51,42.805,6.029,4330,1995,196.702,60.151,13.286
2017-12-01T05:24:51,42.805,6.029,4330,1995,196.756,60.169,13.287
2017-12-01T05:27:51,42.805,6.029,4330,1995,196.763,60.170,13.286
2017-12-01T05:30:51,42.805,6.029,4330,1995,196.862,60.200,13.286
2017-12-01T05:33:51,42.805,6.029,4330,1995,196.922,60.219,13.286
2017-12-01T05:36:51,42.805,6.029,4330,1995,196.930,60.221,13.286
2017-12-01T05:39:51,42.805,6.029,4330,1995,196.851,60.198,13.286
2017-12-01T05:42:51,42.805,6.029,4330,1995,196.880,60.206,13.286
2017-12-01T05:45:51,42.805,6.029,4330,1995,196.946,60.226,13.286
2017-12-01T05:48:51,42.805,6.029,4330,1995,197.070,60.264,13.286
2017-12-01T05:51:51,42.805,6.029,4330,1995,197.085,60.269,13.286
2017-12-01T05:54:51,42.805,6.029,4330,1995,197.096,60.272,13.286
2017-12-01T05:57:51,42.805,6.029,4330,1995,197.019,60.248,13.286
2017-12-01T06:00:51,42.805,6.029,4330,1995,197.023,60.250,13.286
2017-12-01T06:03:51,42.805,6.029,4330,1995,197.039,60.254,13.286
2017-12-01T06:06:51,42.805,6.029,4330,1995,197.012,60.247,13.286
2017-12-01T06:09:51,42.805,6.029,4330,1995,196.972,60.234,13.286
2017-12-01T06:12:51,42.805,6.029,4330,1995,197.002,60.243,13.286
2017-12-01T06:15:51,42.805,6.029,4330,1995,196.999,60.242,13.286
2017-12-01T06:18:51,42.805,6.029,4330,1995,196.905,60.213,13.286
2017-12-01T06:21:51,42.805,6.029,4330,1995,196.880,60.206,13.286
2017-12-01T06:24:51,42.805,6.029,4330,1995,196.946,60.226,13.286
2017-12-01T06:27:51,42.805,6.029,4330,1995,196.995,60.241,13.286
2017-12-01T06:30:51,42.805,6.029,4330,1995,197.037,60.254,13.286
2017-12-01T06:33:51,42.805,6.029,4330,1995,197.014,60.247,13.286
2017-12-01T06:36:51,42.805,6.029,4330,1995,196.995,60.241,13.286
2017-12-01T06:39:51,42.805,6.029,4330,1995,196.844,60.195,13.286
2017-12-01T06:42:51,42.805,6.029,4330,1995,196.838,60.193,13.286
2017-12-01T06:45:51,42.805,6.029,4330,1995,196.703,60.152,13.286
2017-12-01T06:48:51,42.805,6.029,4330,1995,196.720,60.157,13.286
2017-12-01T06:51:51,42.805,6.029,4330,1995,196.692,60.148,13.286
2017-12-01T06:54:51,42.805,6.029,4330,1995,196.644,60.134,13.286
2017-12-01T06:57:51,42.805,6.029,4330,1995,196.533,60.100,13.286
2017-12-01T07:00:51,42.805,6.029,4330,1995,196.555,60.106,13.286
2017-12-01T07:03:51,42.805,6.029,4330,1995,196.463,60.078,13.286
2017-12-01T07:06:51,42.805,6.029,4330,1995,196.587,60.116,13.286
2017-12-01T07:09:51,42.805,6.029,4330,1995,196.468,60.080,13.286
2017-12-01T07:12:51,42.805,6.029,4330,1995,196.409,60.062,13.286
2017-12-01T07:15:51,42.805,6.029,4330,1995,196.396,60.058,13.286
2017-12-01T07:18:51,42.805,6.029,4330,1995,196.288,60.025,13.286
2017-12-01T07:21:51,42.805,6.029,4330,1995,196.286,60.024,13.286
2017-12-01T07:24:51,42.805,6.029,4330,1995,196.305,60.031,13.286
2017-12-01T07:27:51,42.805,6.029,4330,1995,196.173,59.990,13.286
2017-12-01T07:30:51,42.805,6.029,4330,1995,196.162,59.987,13.286
2017-12-01T07:33:51,42.805,6.029,4330,1995,196.194,59.996,13.286
2017-12-01T07:36:51,42.805,6.029,4330,1995,196.211,60.002,13.286
2017-12-01T07:39:51,42.805,6.029,4330,1995,196.162,59.987,13.286
2017-12-01T07:42:51,42.805,6.029,4330,1995,196.221,60.004,13.286
2017-12-01T07:45:51,42.805,6.029,4330,1995,196.224,60.005,13.286
2017-12-01T07:48:51,42.805,6.029,4330,1995,196.182,59.993,13.286
2017-12-01T07:51:51,42.805,6.029,4330,1995,196.266,60.018,13.286
2017-12-01T07:54:51,42.805,6.029,4330,1995,196.255,60.015,13.286
2017-12-01T07:57:51,42.805,6.029,4330,1995,196.204,59.999,13.286
2017-12-01T08:00:51,42.805,6.029,4330,1995,196.210,60.001,13.286
2017-12-01T08:03:51,42.805,6.029,4330,1995,196.219,60.004,13.286
2017-12-01T08:06:51,42.805,6.029,4330,1995,196.107,59.970,13.286
2017-12-01T08:09:51,42.805,6.029,4330,1995,196.177,59.991,13.286
2017-12-01T08:12:51,42.805,6.029,4330,1995,196.123,59.974,13.286
2017-12-01T08:15:51,42.805,6.029,4330,1995,196.166,59.988,13.286
2017-12-01T08:18:51,42.805,6.029,4330,1995,196.316,60.033,13.286
2017-12-01T08:21:51,42.805,6.029,4330,1995,196.404,60.060,13.286
2017-12-01T08:24:51,42.805,6.029,4330,1995,196.350,60.044,13.286
2017-12-01T08:27:51,42.805,6.029,4330,1995,196.305,60.030,13.286
2017-12-01T08:30:51,42.805,6.029,4330,1995,196.291,60.026,13.286
2017-12-01T08:33:51,42.805,6.029,4330,1995,196.225,60.006,13.286
2017-12-01T08:36:51,42.805,6.029,4330,1995,196.217,60.003,13.286
2017-12-01T08:39:51,42.805,6.029,4330,1995,196.281,60.023,13.286
2017-12-01T08:42:51,42.805,6.029,4330,1995,196.362,60.047,13.286
2017-12-01T08:45:51,42.805,6.029,4330,1995,196.708,60.153,13.286
2017-12-01T08:48:51,42.805,6.029,4330,1995,196.583,60.115,13.286
2017-12-01T08:51:51,42.805,6.029,4330,1995,196.671,60.142,13.286
2017-12-01T08:54:51,42.805,6.029,4330,1995,196.681,60.145,13.286
2017-12-01T08:57:51,42.805,6.029,4330,1995,196.619,60.126,13.286
2017-12-01T09:00:51,42.805,6.029,4330,1995,196.607,60.123,13.286
2017-12-01T09:03:51,42.805,6.029,4330,1995,196.619,60.126,13.286
2017-12-01T09:06:51,42.805,6.029,4330,1995,196.684,60.146,13.286
2017-12-01T09:09:51,42.805,6.029,4330,1995,196.760,60.169,13.286
2017-12-01T09:12:51,42.805,6.029,4330,1995,196.866,60.201,13.286
2017-12-01T09:15:51,42.805,6.029,4330,1995,196.802,60.183,13.287
2017-12-01T09:18:51,42.805,6.029,4330,1995,196.730,60.161,13.287
2017-12-01T09:21:51,42.805,6.029,4330,1995,196.777,60.176,13.287
2017-12-01T09:24:51,42.805,6.029,4330,1995,196.644,60.135,13.287
2017-12-01T09:27:51,42.805,6.029,4330,1995,196.618,60.127,13.287
2017-12-01T09:30:51,42.805,6.029,4330,1995,196.676,60.144,13.286
2017-12-01T09:33:51,42.805,6.029,4330,1995,196.745,60.165,13.286
2017-12-01T09:36:51,42.805,6.029,4330,1995,196.699,60.151,13.287
2017-12-01T09:39:51,42.805,6.029,4330,1995,196.701,60.152,13.287
2017-12-01T09:42:51,42.805,6.029,4330,1995,196.697,60.151,13.287
2017-12-01T09:45:51,42.805,6.029,4330,1995,196.580,60.115,13.287
2017-12-01T09:48:51,42.805,6.029,4330,1995,196.659,60.139,13.287
2017-12-01T09:51:51,42.805,6.029,4330,1995,196.562,60.110,13.287
2017-12-01T09:54:51,42.805,6.029,4330,1995,196.490,60.088,13.287
2017-12-01T09:57:51,42.805,6.029,4330,1995,196.450,60.076,13.287
2017-12-01T10:00:51,42.805,6.029,4330,1995,196.339,60.043,13.288
2017-12-01T10:03:51,42.805,6.029,4330,1995,196.267,60.021,13.288
2017-12-01T10:06:51,42.805,6.029,4330,1995,196.270,60.022,13.288
2017-12-01T10:09:51,42.805,6.029,4330,1995,196.199,60.000,13.288
2017-12-01T10:12:51,42.805,6.029,4330,1995,196.072,59.961,13.288
2017-12-01T10:15:51,42.805,6.029,4330,1995,196.097,59.969,13.288
2017-12-01T10:18:51,42.805,6.029,4330,1995,196.007,59.942,13.289
2017-12-01T10:21:51,42.805,6.029,4330,1995,195.921,59.915,13.288
2017-12-01T10:24:51,42.805,6.029,4330,1995,195.932,59.918,13.287
2017-12-01T10:27:51,42.805,6.029,4330,1995,195.933,59.918,13.287
2017-12-01T10:30:51,42.805,6.029,4330,1995,195.876,59.901,13.288
2017-12-01T10:33:51,42.805,6.029,4330,1995,195.852,59.894,13.288
2017-12-01T10:36:51,42.805,6.029,4330,1995,195.787,59.874,13.287
2017-12-01T10:39:51,42.805,6.029,4330,1995,195.764,59.866,13.287
2017-12-01T10:42:51,42.805,6.029,4330,1995,195.695,59.845,13.287
2017-12-01T10:45:51,42.805,6.029,4330,1995,195.677,59.840,13.287
2017-12-01T10:48:51,42.805,6.029,4330,1995,195.735,59.858,13.288
2017-12-01T10:51:51,42.805,6.029,4330,1995,195.635,59.826,13.287
2017-12-01T10:54:51,42.805,6.029,4330,1995,195.588,59.812,13.287
2017-12-01T10:57:51,42.805,6.029,4330,1995,195.480,59.780,13.288
2017-12-01T11:00:51,42.805,6.029,4330,1995,195.465,59.778,13.290
2017-12-01T11:03:51,42.805,6.029,4330,1995,195.239,59.707,13.288
2017-12-01T11:06:51,42.805,6.029,4330,1995,195.085,59.659,13.288
2017-12-01T11:09:51,42.805,6.029,4330,1995,195.069,59.654,13.288
2017-12-01T11:12:51,42.805,6.029,4330,1995,195.389,59.756,13.291
2017-12-01T11:15:51,42.805,6.029,4330,1995,195.539,59.798,13.287
2017-12-01T11:18:51,42.805,6.029,4330,1995,195.624,59.824,13.287
2017-12-01T11:21:51,42.805,6.029,4330,1995,195.671,59.838,13.287
2017-12-01T11:24:51,42.805,6.029,4330,1995,195.829,59.888,13.288
2017-12-01T11:27:51,42.805,6.029,4330,1995,195.956,59.925,13.287
2017-12-01T11:30:51,42.805,6.029,4330,1995,195.896,59.907,13.287
2017-12-01T11:33:51,42.805,6.029,4330,1995,195.837,59.888,13.287
2017-12-01T11:36:51,42.805,6.029,4330,1995,195.793,59.875,13.287
2017-12-01T11:39:51,42.805,6.029,4330,1995,195.756,59.865,13.288
2017-12-01T11:42:51,42.805,6.029,4330,1995,195.710,59.851,13.288
2017-12-01T11:45:51,42.805,6.029,4330,1995,195.532,59.796,13.288
2017-12-01T11:48:51,42.805,6.029,4330,1995,195.435,59.766,13.288
2017-12-01T11:51:51,42.805,6.029,4330,1995,195.530,59.795,13.287
2017-12-01T11:54:51,42.805,6.029,4330,1995,195.473,59.777,13.287
2017-12-01T11:57:51,42.805,6.029,4330,1995,195.410,59.759,13.288
2017-12-01T12:00:51,42.805,6.029,4330,1995,195.464,59.774,13.287
2017-12-01T12:03:51,42.805,6.029,4330,1995,195.642,59.829,13.287
2017-12-01T12:06:51,42.805,6.029,4330,1995,195.646,59.830,13.287
2017-12-01T12:09:51,42.805,6.029,4330,1995,195.714,59.852,13.288
2017-12-01T12:12:51,42.805,6.029,4330,1995,195.637,59.827,13.287
2017-12-01T12:15:51,42.805,6.029,4330,1995,195.664,59.835,13.287
2017-12-01T12:18:51,42.805,6.029,4330,1995,195.830,59.886,13.287
2017-12-01T12:21:51,42.805,6.029,4330,1995,196.026,59.946,13.287
2017-12-01T12:24:51,42.805,6.029,4330,1995,195.990,59.935,13.287
2017-12-01T12:27:51,42.805,6.029,4330,1995,195.904,59.910,13.288
2017-12-01T12:30:51,42.805,6.029,4330,1995,195.974,59.930,13.287
2017-12-01T12:33:51,42.805,6.029,4330,1995,195.858,59.895,13.287
2017-12-01T12:36:51,42.805,6.029,4330,1995,195.935,59.918,13.287
2017-12-01T12:39:51,42.805,6.029,4330,1995,195.860,59.896,13.287
2017-12-01T12:42:51,42.805,6.029,4330,1995,195.917,59.913,13.287
2017-12-01T12:45:51,42.805,6.029,4330,1995,195.865,59.896,13.287
2017-12-01T12:48:51,42.805,6.029,4330,1995,195.868,59.899,13.288
2017-12-01T12:51:51,42.805,6.029,4330,1995,195.906,59.909,13.287
2017-12-01T12:54:51,42.805,6.029,4330,1995,195.947,59.921,13.286
2017-12-01T12:57:51,42.805,6.029,4330,1995,195.921,59.913,13.287
2017-12-01T13:00:51,42.805,6.029,4330,1995,195.805,59.878,13.287
2017-12-01T13:03:51,42.805,6.029,4330,1995,195.954,59.924,13.287
2017-12-01T13:06:51,42.805,6.029,4330,1995,195.930,59.916,13.287
2017-12-01T13:09:51,42.805,6.029,4330,1995,196.142,59.981,13.287
2017-12-01T13:12:51,42.805,6.029,4330,1995,195.957,59.924,13.286
2017-12-01T13:15:51,42.805,6.029,4330,1995,196.129,59.977,13.287
2017-12-01T13:18:51,42.805,6.029,4330,1995,196.041,59.950,13.286
2017-12-01T13:21:51,42.805,6.029,4330,1995,196.001,59.938,13.287
2017-12-01T13:24:51,42.805,6.029,4330,1995,195.987,59.934,13.287
2017-12-01T13:27:51,42.805,6.029,4330,1995,195.992,59.935,13.286
2017-12-01T13:30:51,42.805,6.029,4330,1995,195.982,59.932,13.286
2017-12-01T13:33:51,42.805,6.029,4330,1995,196.045,59.951,13.286
2017-12-01T13:36:51,42.805,6.029,4330,1995,195.969,59.928,13.287
2017-12-01T13:39:51,42.805,6.029,4330,1995,195.975,59.930,13.287
2017-12-01T13:42:51,42.805,6.029,4330,1995,196.022,59.945,13.287
2017-12-01T13:45:51,42.805,6.029,4330,1995,196.130,59.977,13.286
2017-12-01T13:48:51,42.805,6.029,4330,1995,196.171,59.989,13.286
2017-12-01T13:51:51,42.805,6.029,4330,1995,196.127,59.977,13.287
2017-12-01T13:54:51,42.805,6.029,4330,1995,196.167,59.989,13.287
2017-12-01T13:57:51,42.805,6.029,4330,1995,196.166,59.988,13.286
2017-12-01T14:00:51,42.805,6.029,4330,1995,196.238,60.010,13.286
2017-12-01T14:03:51,42.805,6.029,4330,1995,196.282,60.024,13.287
2017-12-01T14:06:51,42.805,6.029,4330,1995,196.297,60.028,13.286
2017-12-01T14:09:51,42.805,6.029,4330,1995,196.268,60.019,13.286
2017-12-01T14:12:51,42.805,6.029,4330,1995,196.362,60.048,13.286
2017-12-01T14:15:51,42.805,6.029,4330,1995,196.452,60.075,13.286
2017-12-01T14:18:51,42.805,6.029,4330,1995,196.360,60.047,13.286
2017-12-01T14:21:51,42.805,6.029,4330,1995,196.413,60.064,13.286
2017-12-01T14:24:51,42.805,6.029,4330,1995,196.485,60.085,13.286
2017-12-01T14:27:51,42.805,6.029,4330,1995,196.532,60.100,13.286
2017-12-01T14:30:51,42.805,6.029,4330,1995,196.523,60.097,13.286
2017-12-01T14:33:51,42.805,6.029,4330,1995,196.566,60.110,13.286
2017-12-01T14:36:51,42.805,6.029,4330,1995,196.599,60.121,13.287
2017-12-01T14:39:51,42.805,6.029,4330,1995,196.550,60.105,13.286
2017-12-01T14:42:51,42.805,6.029,4330,1995,196.438,60.071,13.286
2017-12-01T14:45:51,42.805,6.029,4330,1995,196.513,60.094,13.286
2017-12-01T14:48:51,42.805,6.029,4330,1995,196.609,60.124,13.287
2017-12-01T14:51:51,42.805,6.029,4330,1995,196.674,60.143,13.286
2017-12-01T14:54:51,42.805,6.029,4330,1995,196.580,60.114,13.286
2017-12-01T14:57:51,42.805,6.029,4330,1995,196.582,60.116,13.287
2017-12-01T15:00:51,42.805,6.029,4330,1995,196.555,60.107,13.286
2017-12-01T15:03:51,42.805,6.029,4330,1995,196.606,60.122,13.286
2017-12-01T15:06:51,42.805,6.029,4330,1995,196.607,60.123,13.287
2017-12-01T15:09:51,42.805,6.029,4330,1995,196.552,60.106,13.286
2017-12-01T15:12:51,42.805,6.029,4330,1995,196.410,60.063,13.287
2017-12-01T15:15:51,42.805,6.029,4330,1995,196.570,60.111,13.286
2017-12-01T15:18:51,42.805,6.029,4330,1995,196.558,60.108,13.286
2017-12-01T15:21:51,42.805,6.029,4330,1995,196.726,60.160,13.287
2017-12-01T15:24:51,42.805,6.029,4330,1995,196.662,60.139,13.286
2017-12-01T15:27:51,42.805,6.029,4330,1995,196.781,60.176,13.286
2017-12-01T15:30:51,42.805,6.029,4330,1995,196.696,60.150,13.286
2017-12-01T15:33:51,42.805,6.029,4330,1995,196.773,60.174,13.286
2017-12-01T15:36:51,42.805,6.029,4330,1995,196.795,60.180,13.286
2017-12-01T15:39:51,42.805,6.029,4330,1995,196.726,60.160,13.287
2017-12-01T15:42:51,42.805,6.029,4330,1995,196.724,60.160,13.287
2017-12-01T15:45:51,42.805,6.029,4330,1995,196.809,60.184,13.286
2017-12-01T15:48:51,42.805,6.029,4330,1995,196.802,60.183,13.287
2017-12-01T15:51:51,42.805,6.029,4330,1995,196.683,60.146,13.287
2017-12-01T15:54:51,42.805,6.029,4330,1995,196.766,60.172,13.287
2017-12-01T15:57:51,42.805,6.029,4330,1995,196.607,60.123,13.287
2017-12-01T16:00:51,42.805,6.029,4330,1995,196.779,60.177,13.287
2017-12-01T16:03:51,42.805,6.029,4330,1995,196.730,60.161,13.287
2017-12-01T16:06:51,42.805,6.029,4330,1995,196.727,60.160,13.287
2017-12-01T16:09:51,42.805,6.029,4330,1995,196.735,60.163,13.287
2017-12-01T16:12:51,42.805,6.029,4330,1995,196.706,60.154,13.287
2017-12-01T16:15:51,42.805,6.029,4330,1995,196.662,60.140,13.286
2017-12-01T16:18:51,42.805,6.029,4330,1995,196.581,60.115,13.287
2017-12-01T16:21:51,42.805,6.029,4330,1995,196.537,60.102,13.286
2017-12-01T16:24:51,42.805,6.029,4330,1995,196.567,60.111,13.287
2017-12-01T16:27:51,42.805,6.029,4330,1995,196.414,60.065,13.287
2017-12-01T16:30:51,42.805,6.029,4330,1995,196.350,60.046,13.288
2017-12-01T16:33:51,42.805,6.029,4330,1995,196.192,59.997,13.287
2017-12-01T16:36:51,42.805,6.029,4330,1995,196.180,59.993,13.287
2017-12-01T16:39:51,42.805,6.029,4330,1995,196.231,60.009,13.287
2017-12-01T16:42:51,42.805,6.029,4330,1995,196.276,60.023,13.287
2017-12-01T16:45:51,42.805,6.029,4330,1995,196.211,60.002,13.287
2017-12-01T16:48:51,42.805,6.029,4330,1995,196.195,59.998,13.287
2017-12-01T16:51:51,42.805,6.029,4330,1995,196.243,60.012,13.287
2017-12-01T16:54:51,42.805,6.029,4330,1995,196.230,60.008,13.286
2017-12-01T16:57:51,42.805,6.029,4330,1995,196.149,59.985,13.288
2017-12-01T17:00:51,42.805,6.029,4330,1995,196.184,59.994,13.287
2017-12-01T17:03:51,42.805,6.029,4330,1995,196.204,60.000,13.287
2017-12-01T17:06:51,42.805,6.029,4330,1995,196.041,59.951,13.287
2017-12-01T17:09:51,42.805,6.029,4330,1995,196.004,59.939,13.287
2017-12-01T17:12:51,42.805,6.029,4330,1995,196.144,59.982,13.287
2017-12-01T17:15:51,42.805,6.029,4330,1995,196.339,60.041,13.287
2017-12-01T17:18:51,42.805,6.029,4330,1995,196.283,60.024,13.286
2017-12-01T17:21:51,42.805,6.029,4330,1995,196.251,60.014,13.287
2017-12-01T17:24:51,42.805,6.029,4330,1995,196.100,59.968,13.286
2017-12-01T17:27:51,42.805,6.029,4330,1995,195.988,59.934,13.287
2017-12-01T17:30:51,42.805,6.029,4330,1995,196.034,59.948,13.287
2017-12-01T17:33:51,42.805,6.029,4330,1995,196.110,59.971,13.287
2017-12-01T17:36:51,42.805,6.029,4330,1995,196.115,59.973,13.287
2017-12-01T17:39:51,42.805,6.029,4330,1995,196.050,59.953,13.286
2017-12-01T17:42:51,42.805,6.029,4330,1995,196.082,59.963,13.286
2017-12-01T17:45:51,42.805,6.029,4330,1995,196.107,59.970,13.287
2017-12-01T17:48:51,42.805,6.029,4330,1995,196.119,59.973,13.286
2017-12-01T17:51:51,42.805,6.029,4330,1995,196.091,59.965,13.286
2017-12-01T17:54:51,42.805,6.029,4330,1995,196.134,59.978,13.286
2017-12-01T17:57:51,42.805,6.029,4330,1995,196.205,60.000,13.287
2017-12-01T18:00:51,42.805,6.029,4330,1995,196.022,59.944,13.286
2017-12-01T18:03:51,42.805,6.029,4330,1995,196.117,59.973,13.287
2017-12-01T18:06:51,42.805,6.029,4330,1995,196.068,59.958,13.286